Date,TemperatureHighF,TemperatureAvgF,TemperatureLowF,DewpointHighF,DewpointAvgF,DewpointLowF,HumidityHigh,HumidityAvg,HumidityLow,PressureMaxIn,PressureMinIn,WindSpeedMaxMPH,WindSpeedAvgMPH,GustSpeedMaxMPH,PrecipitationSumIn
2013-3-1,70.0,46.4,24.0,19.8,14.5,6.3,61,32,14,30.50,30.20,17,8,26,0.00
2013-3-2,77.0,51.0,29.0,25.2,18.6,12.3,67,35,9,30.50,30.17,8,4,12,0.00
2013-3-3,79.0,53.7,24.6,24.9,15.8,2.2,78,31,5,30.36,29.99,14,5,25,0.00
2013-3-4,71.7,57.1,36.0,34.4,24.6,12.1,57,30,13,30.30,29.92,20,8,35,0.00
2013-3-5,74.0,53.7,30.0,32.3,24.7,20.0,77,38,13,30.35,30.05,12,5,20,0.00
2013-3-6,78.8,61.1,42.0,31.0,24.0,13.0,53,27,9,30.21,29.94,16,6,29,0.00
2013-3-7,73.1,54.7,32.9,30.2,23.8,17.2,67,35,12,30.20,29.95,14,5,22,0.00
2013-3-8,60.0,48.0,39.0,49.3,37.6,21.6,95,70,42,30.14,29.89,23,9,37,0.30
2013-3-9,50.0,41.8,34.0,37.2,32.9,28.4,96,72,48,30.21,30.06,14,8,22,0.00
2013-3-10,60.0,45.5,33.0,39.7,32.4,21.2,100,66,23,30.31,30.11,14,5,21,0.00
2013-3-11,71.0,47.6,25.0,35.6,28.0,19.3,100,57,16,30.38,30.05,7,3,15,0.00
2013-3-12,77.0,52.4,27.0,32.9,26.5,14.7,97,47,10,30.32,30.05,7,4,10,0.00
2013-3-13,80.0,58.3,37.0,30.1,23.6,15.3,73,34,9,30.36,30.09,10,5,16,0.00
2013-3-14,84.0,60.7,38.0,29.0,21.1,12.2,60,28,7,30.34,30.08,10,5,15,0.00
2013-3-15,85.0,62.0,34.0,28.9,20.0,5.7,67,28,5,30.33,29.95,13,5,31,0.00
2013-3-16,82.0,61.9,36.7,28.7,18.5,7.4,61,25,7,30.18,29.85,17,6,26,0.00
2013-3-17,78.0,62.0,37.0,24.9,17.8,8.6,34,19,11,30.13,29.89,17,7,28,0.00
2013-3-18,77.0,59.3,38.0,32.8,22.8,15.4,54,27,10,30.22,29.96,14,4,20,0.00
2013-3-19,74.0,57.4,39.0,30.1,24.8,20.9,56,31,15,30.24,30.01,16,5,25,0.00
2013-3-20,79.0,59.9,38.0,31.1,25.9,20.5,63,32,12,30.28,29.96,12,5,18,0.00
2013-3-21,78.0,59.5,39.0,33.3,26.4,18.4,61,32,11,30.07,29.83,13,4,23,0.00
2013-3-22,75.0,61.5,48.0,32.9,26.2,16.2,45,28,11,29.99,29.77,17,7,31,0.00
2013-3-23,70.0,55.8,39.0,29.5,19.8,9.3,58,28,10,30.20,29.97,20,8,32,0.00
2013-3-24,71.0,53.2,29.0,21.4,11.6,6.4,59,23,9,30.24,29.92,15,5,26,0.00
2013-3-25,73.0,53.2,32.0,19.7,13.4,6.1,42,23,11,30.23,29.99,13,4,17,0.00
2013-3-26,79.0,58.1,32.0,19.0,15.1,12.3,51,23,9,30.23,29.92,10,5,20,0.00
2013-3-27,78.0,60.1,36.0,24.8,18.3,10.4,44,22,8,30.21,29.97,14,5,20,0.00
2013-3-28,79.0,60.7,37.0,33.2,23.8,17.0,59,28,10,30.27,30.01,14,4,20,0.00
2013-3-29,80.0,63.4,43.0,25.9,22.7,19.0,43,23,11,30.30,30.03,13,5,17,0.00
2013-3-30,78.0,62.1,42.0,27.6,22.3,15.4,46,24,10,30.28,30.01,17,4,22,0.00
2013-3-31,80.0,61.2,37.0,31.1,24.5,19.1,57,28,12,30.26,29.97,12,4,25,0.00